Theta_e
348 347 347 347 347 348 347 346 348 349 350 350 351 349 349 349 349 347 347 348 344 346 346 346 344 346 345 345 346 345 344 339 334 338 340 343 342 343 348 350 352 351 348
348 346 347 347 346 347 347 349 349 348 350 350 351 349 349 350 349 347 346 350 345 344 343 345 346 349 344 345 344 343 343 344 340 334 339 342 343 346 346 345 348 355 349
347 347 345 346 348 347 346 347 349 347 349 350 349 349 348 347 349 350 349 349 349 346 348 347 346 345 345 345 343 343 344 346 343 340 340 342 342 346 346 347 348 348 354
347 346 345 345 347 347 346 346 347 349 347 347 350 351 350 349 350 349 350 347 348 351 349 351 351 349 346 345 345 343 344 340 341 339 338 339 339 343 344 343 345 347 348
342 342 341 344 344 345 344 344 347 347 348 348 348 348 345 341 337 337 340 345 347 346 348 349 349 348 343 343 346 343 342 340 339 337 337 338 339 338 340 343 342 345 345
339 340 340 340 339 341 343 343 345 345 346 345 345 342 335 335 329 331 336 339 345 346 346 347 342 341 340 337 338 339 342 339 336 338 337 336 337 339 342 343 342 339 337
340 342 341 341 339 340 344 344 342 342 344 341 337 333 328 330 323 325 328 335 344 343 345 346 344 337 334 338 339 337 335 335 337 339 337 338 339 342 343 339 338 338 339
339 340 340 339 338 339 342 343 341 342 342 339 331 325 321 319 316 319 324 333 343 343 340 338 332 325 323 332 339 340 336 332 333 339 333 332 334 337 338 341 341 340 340
337 337 338 338 337 338 339 339 340 338 338 333 328 321 316 312 314 318 332 343 334 330 332 329 324 320 319 324 333 331 326 322 326 324 325 326 327 329 330 338 334 332 329
337 338 339 338 336 335 336 339 336 335 329 327 320 318 317 309 311 314 326 339 322 319 317 316 319 316 314 315 327 317 315 316 319 325 329 326 326 328 330 331 332 325 327
335 336 337 336 335 335 335 332 330 325 321 319 317 317 314 309 309 310 314 327 329 326 322 317 313 312 310 310 312 321 316 316 323 324 319 320 320 322 322 323 321 321 318
328 331 333 333 335 335 332 328 327 324 319 317 313 311 311 309 308 308 310 314 322 323 319 310 310 309 310 312 316 314 316 320 318 316 315 314 314 315 315 316 316 316 317
325 320 316 313 313 315 328 330 328 325 319 315 312 311 312 311 308 306 306 308 309 307 308 311 311 309 310 313 312 313 314 313 312 311 309 308 308 310 310 312 312 312 314
322 319 312 310 307 306 304 304 305 307 312 318 318 313 308 302 302 300 301 301 302 303 307 314 312 311 311 312 310 310 310 308 306 305 305 306 306 307 307 307 304 307 307
320 320 312 308 304 302 300 300 298 296 298 305 309 315 305 301 295 296 296 296 297 297 303 308 305 304 305 305 306 306 306 305 303 302 303 304 304 304 303 304 303 301 300
313 314 314 307 305 301 300 301 298 297 296 296 297 301 296 296 295 294 293 294 295 297 306 305 304 304 302 301 301 301 301 302 301 302 301 301 300 299 298 299 299 297 295
310 311 312 313 309 307 305 301 295 297 298 295 295 296 296 295 294 293 293 295 296 301 304 303 302 301 299 299 298 298 297 297 299 299 298 297 297 297 296 295 295 295 294
301 304 302 304 311 308 306 305 301 298 298 296 296 295 294 294 294 294 294 299 301 301 300 299 298 299 298 298 297 297 297 297 296 297 296 296 295 295 294 294 294 293 293
305 301 300 301 302 306 306 303 298 299 298 295 295 296 295 295 295 296 298 302 300 298 298 298 297 297 296 296 296 295 295 295 294 294 293 292 292 293 292 293 293 294 293
301 307 303 299 298 298 300 301 301 301 296 293 293 295 296 298 300 300 301 300 299 298 296 296 295 295 294 294 293 293 293 292 291 291 290 290 289 290 290 290 290 290 290
301 299 304 297 298 298 298 299 300 301 299 297 298 298 297 299 299 298 298 298 299 298 297 296 295 294 293 293 292 292 292 290 289 289 288 288 288 288 288 289 288 290 291
301 300 296 295 296 297 298 298 297 299 300 299 297 296 296 297 301 300 299 298 299 299 298 298 296 295 295 294 293 291 290 288 288 287 287 287 286 287 287 288 290 290 291
301 301 298 296 295 298 297 296 295 297 296 295 293 294 296 299 299 299 300 299 298 298 298 298 296 295 294 293 293 292 290 288 287 287 286 286 288 289 289 288 288 288 289
303 302 299 296 295 295 296 295 296 296 297 295 294 294 296 299 299 299 299 299 299 298 298 297 296 295 293 292 291 290 289 289 289 287 287 286 288 290 289 288 288 288 289
304 305 300 297 295 296 296 295 295 295 297 297 296 295 295 298 297 297 297 298 297 296 295 295 294 294 293 292 291 289 288 288 289 288 288 289 289 289 289 289 289 289 290
309 306 301 299 296 295 296 296 295 296 296 297 297 296 297 298 297 297 296 296 295 295 295 294 294 294 293 292 291 289 285 287 288 286 287 289 289 289 289 289 290 290 291
Wind_Speed
9 9 9 7 7 6 5 5 5 4 6 7 7 6 5 5 3 4 3 3 1 2 2 0 2 2 3 5 5 4 3 2 2 3 3 3 4 4 8 8 6 6 5
9 7 8 7 7 6 6 6 6 6 3 6 6 6 6 5 6 6 5 3 4 4 4 3 5 3 2 2 1 1 1 3 3 2 3 2 2 4 4 6 6 6 5
7 8 6 7 7 7 6 5 4 5 5 5 6 6 6 5 5 6 6 6 5 5 5 6 7 4 4 3 3 2 1 1 1 2 2 2 2 2 4 3 4 5 6
7 8 7 7 7 6 4 3 5 6 5 5 5 6 6 5 3 3 4 5 6 6 5 4 6 5 4 3 4 3 2 0 1 2 2 2 1 3 1 3 7 3 6
2 6 7 6 5 5 5 3 3 4 5 5 6 3 4 4 2 2 4 5 5 6 4 1 4 5 4 3 2 3 2 0 1 1 2 2 2 2 2 2 3 4 5
4 4 4 2 3 2 1 2 5 5 3 3 1 6 5 4 1 3 3 5 6 5 5 6 4 4 4 3 4 7 7 5 3 3 1 2 3 2 2 2 3 4 4
6 5 5 5 5 4 3 4 4 1 5 3 4 4 4 1 3 6 4 4 5 5 4 6 4 3 3 3 3 7 5 4 2 3 3 3 2 1 2 3 2 2 3
5 4 3 4 4 5 5 4 4 2 5 5 4 4 2 1 7 7 6 4 1 4 4 4 5 4 4 2 4 5 4 4 3 1 2 4 5 5 3 2 2 4 4
4 5 5 5 4 4 4 5 3 2 3 5 5 5 3 4 11 6 6 5 5 5 4 4 6 5 6 5 5 5 4 4 5 5 5 7 7 4 1 3 4 3 3
4 3 5 5 5 5 5 5 4 4 5 5 7 6 3 5 12 12 7 7 6 4 5 6 8 5 6 7 5 5 5 4 5 6 5 9 9 10 12 7 4 4 2
3 4 5 5 5 5 4 4 5 6 7 6 6 5 3 6 9 13 12 5 1 4 3 3 3 7 5 5 5 4 2 3 5 5 5 6 7 8 7 6 6 3 3
4 7 5 3 4 3 7 5 5 6 7 5 6 5 4 5 11 13 16 14 7 2 2 2 3 7 10 11 8 8 10 6 4 6 7 6 5 5 6 6 7 6 5
8 9 7 7 6 6 5 5 5 3 4 5 4 3 3 3 3 12 13 13 11 4 3 5 3 11 10 12 14 14 10 6 5 7 5 4 3 3 4 4 7 7 6
8 8 6 7 7 8 6 5 4 3 3 4 5 5 4 3 3 3 3 4 5 5 6 7 7 9 12 7 8 9 6 5 5 4 3 3 3 5 8 7 5 7 4
5 7 6 5 6 6 6 5 4 3 3 1 2 4 5 2 2 3 3 3 2 2 1 3 4 5 7 6 7 7 5 5 7 4 5 5 6 6 6 6 6 5 5
4 3 4 5 4 4 7 4 9 6 8 7 5 4 2 6 7 7 4 1 2 2 3 4 6 6 6 5 5 5 6 8 5 5 6 5 5 6 5 6 6 5 5
2 2 2 4 4 4 3 6 5 1 1 4 5 5 2 8 4 3 6 8 6 3 7 5 6 5 4 4 5 5 4 4 4 6 6 6 5 5 6 6 6 5 6
4 5 2 3 4 4 3 3 4 5 4 3 1 2 5 9 6 4 5 8 7 7 5 5 5 5 4 5 5 4 4 4 5 6 6 6 6 6 5 6 5 6 5
2 2 1 0 2 3 4 4 4 4 4 3 3 1 0 2 5 12 10 7 8 5 4 6 4 4 4 4 4 5 5 5 5 6 5 5 5 4 4 4 5 10 9
2 3 2 2 1 1 2 3 4 4 4 3 3 3 2 3 3 5 6 8 7 6 4 6 5 4 4 5 5 4 5 6 5 5 4 4 5 4 4 4 4 5 5
1 2 2 2 1 2 2 2 4 5 5 4 4 4 6 4 5 3 4 5 6 5 6 6 5 4 4 4 4 5 5 4 4 4 4 4 4 4 4 4 4 4 6
3 3 2 3 3 2 3 1 1 5 5 5 4 1 6 3 6 6 5 4 5 5 5 6 5 4 4 4 4 4 4 4 3 4 4 4 4 4 4 4 5 5 6
4 4 4 3 3 3 2 2 2 4 5 5 4 4 3 4 5 5 6 5 5 5 5 5 5 4 4 3 4 5 5 4 3 3 2 1 2 4 4 5 5 5 6
6 5 5 5 4 4 4 4 3 5 6 5 5 5 5 7 8 7 7 6 6 6 6 5 5 7 6 4 4 4 4 3 3 2 2 2 3 4 5 5 4 5 6
5 5 5 5 6 6 5 5 5 4 5 6 5 5 5 5 5 6 6 7 6 6 5 5 5 8 8 8 7 7 6 7 4 2 2 2 3 4 3 3 5 6 8
5 6 5 4 5 5 6 6 6 6 6 6 6 5 6 8 7 7 7 7 6 5 6 5 7 9 9 7 9 9 7 7 4 2 1 1 2 3 3 5 8 6 8
Wind_Direction
184 177 171 174 187 190 175 187 199 193 189 173 175 185 192 197 198 195 202 211 273 297 297 189 247 205 181 183 179 172 154 126 130 293 235 254 288 298 7 4 11 24 339
191 177 176 179 181 188 199 195 192 198 185 182 177 189 193 204 188 195 203 219 232 232 245 260 262 255 247 209 177 137 140 174 152 254 263 310 356 357 342 2 346 354 333
178 186 188 175 181 193 202 218 208 189 199 189 185 190 194 196 202 214 197 203 208 231 252 231 247 234 254 240 223 187 212 28 153 184 282 299 298 346 341 338 332 325 334
173 187 180 180 185 197 202 219 222 203 196 204 209 204 208 201 200 206 216 216 222 225 222 254 251 231 241 220 218 222 198 251 52 342 321 307 319 311 335 314 337 324 327
174 193 198 160 129 138 116 67 42 221 203 204 195 156 124 130 81 292 244 245 229 235 236 16 58 91 60 210 191 226 169 254 317 332 296 287 294 329 327 288 284 304 295
207 214 180 181 215 122 109 108 42 39 338 271 136 129 118 97 286 263 272 270 253 214 195 152 116 73 72 51 47 213 191 187 198 194 225 262 273 267 294 303 311 345 345
183 186 200 197 204 186 185 141 101 359 32 35 93 114 114 112 303 275 275 243 263 220 183 142 154 76 38 30 15 96 67 70 211 157 200 225 264 254 315 314 323 293 267
129 163 175 193 195 188 166 120 105 149 103 105 93 97 123 17 336 295 245 235 121 90 91 96 102 91 41 35 91 100 87 64 19 268 252 287 274 279 239 230 251 287 296
147 177 178 161 145 137 138 141 95 108 119 121 122 83 60 8 352 324 179 142 99 88 77 83 101 83 9 45 94 102 67 24 342 351 310 304 308 333 315 17 2 17 337
148 210 156 146 135 128 129 126 103 105 92 96 98 91 19 35 16 18 15 119 117 113 90 83 64 78 63 34 87 87 59 2 2 8 27 33 36 46 44 47 18 40 354
135 189 125 128 128 126 110 95 109 107 104 100 101 96 69 45 36 31 30 51 158 136 104 97 63 35 38 73 82 58 69 323 24 63 46 36 31 32 26 21 26 50 36
71 82 79 86 106 126 117 102 105 121 123 119 116 102 55 45 41 32 35 41 11 166 111 52 46 55 62 57 66 77 68 55 52 59 54 35 26 20 5 4 4 22 46
66 65 65 64 50 53 82 119 113 112 125 132 134 116 103 72 41 49 48 38 21 14 0 346 79 87 83 69 54 56 60 65 48 57 48 38 13 356 6 13 17 6 68
104 96 62 57 60 51 59 54 76 82 139 165 166 148 130 79 61 31 61 74 17 27 17 61 61 73 69 68 61 52 48 49 67 75 43 7 5 22 32 16 21 4 32
104 111 108 108 92 89 55 43 71 42 344 112 156 145 136 134 125 86 35 32 32 19 311 63 54 52 68 57 59 50 43 37 50 35 49 46 46 31 31 23 24 10 51
124 141 143 130 133 126 124 112 40 27 4 28 40 109 63 90 148 137 118 37 317 330 65 84 80 78 71 65 61 56 45 51 30 50 50 46 46 41 34 25 28 31 23
161 184 160 160 160 160 161 137 148 168 83 81 85 96 133 151 180 162 119 99 36 76 95 85 88 84 78 70 69 62 54 34 47 54 54 41 36 38 42 31 26 18 14
98 74 131 229 194 177 185 162 157 172 166 153 86 178 171 146 165 101 36 105 73 51 90 99 95 92 82 74 65 71 59 51 55 56 58 49 34 33 27 26 22 13 4
81 64 125 275 174 198 174 153 160 154 153 154 154 161 309 4 61 94 112 103 105 97 93 89 82 84 85 84 81 71 74 69 64 56 43 42 33 35 22 23 15 9 2
77 100 106 91 142 126 141 161 167 172 159 184 165 169 154 64 38 60 79 104 109 113 105 102 92 88 79 77 76 77 74 64 60 57 47 35 22 23 13 5 6 352 349
267 303 256 4 349 279 252 193 185 156 165 183 203 180 174 136 119 89 103 106 116 115 113 111 102 90 86 81 76 84 86 75 63 58 48 33 17 6 359 356 339 345 355
198 233 232 241 273 298 265 248 131 164 171 190 194 132 140 131 148 144 126 131 123 119 122 117 111 116 112 116 118 110 102 93 55 46 44 29 17 3 345 348 349 343 326
207 212 224 230 218 240 286 253 140 162 170 179 155 148 179 157 131 132 135 137 123 120 117 118 128 117 109 106 107 115 111 101 99 96 55 323 346 355 341 340 337 329 318
205 210 217 213 213 212 216 227 213 164 173 176 177 172 177 159 151 151 140 135 124 123 128 133 137 134 125 121 118 113 120 143 147 187 220 260 266 343 341 334 295 288 302
198 213 209 212 204 204 204 202 209 183 180 180 188 178 173 160 145 149 144 140 138 139 148 142 146 155 154 147 149 154 166 169 173 201 235 272 305 308 289 288 301 300 296
228 234 211 206 218 204 206 198 205 195 186 187 184 191 175 166 159 158 154 151 153 157 155 155 167 171 164 156 161 176 187 184 175 200 286 316 316 309 295 294 292 288 290